RH
35 36 37 38 38 40 41 41 41 41 41 40 38 37 36 34 27 20 16 15 14 14 13 13 12 11 11 12 12 12 11 11 10 10 10 10 9 10 13 15 15 14 12 11 12 13 13 13 14 14 12 11 10 10 12 14 14 13 13 14 13 12 11 11 14 16 15 15 14 14 16 14 15 24 30 29 29 31 31 32 34 34 35 36 35 34 34 35
33 34 36 37 38 40 41 41 40 40 40 40 39 37 37 37 33 26 18 16 16 15 14 14 13 12 11 11 11 12 11 11 10 10 10 10 9 9 11 14 15 14 13 12 11 13 14 14 15 13 11 11 11 11 13 14 14 13 14 14 13 12 11 13 16 17 16 16 16 15 15 15 14 21 25 26 29 30 29 33 37 37 38 38 35 33 34 33
32 34 36 37 38 40 40 40 39 40 40 40 40 38 36 36 36 31 21 17 17 16 15 15 14 13 12 12 11 11 11 11 10 10 11 10 9 9 9 12 14 14 13 13 12 13 14 13 15 13 11 13 13 13 13 14 14 14 14 14 12 11 12 16 18 18 18 17 16 16 15 15 14 15 19 24 28 28 27 32 36 38 39 38 34 32 33 32
32 34 35 37 38 39 40 40 38 38 39 40 40 39 36 34 34 31 24 19 18 17 17 16 16 14 13 12 11 11 12 12 10 10 11 10 9 9 8 9 14 15 13 13 13 15 15 13 13 13 12 14 14 14 13 13 14 14 14 12 11 12 14 18 19 19 19 18 17 17 15 15 15 15 19 25 23 22 24 27 30 32 34 34 32 32 31 31
32 33 34 37 38 40 40 40 39 38 38 38 39 38 37 35 34 32 26 21 19 18 18 17 16 16 15 13 12 12 12 12 10 10 12 11 10 10 9 8 12 15 14 13 15 17 16 13 13 13 12 14 15 13 13 14 14 14 14 12 12 13 16 19 20 20 19 18 18 17 16 15 15 16 22 25 17 16 20 22 25 25 25 27 28 30 31 32
33 34 35 37 38 40 41 40 39 38 38 38 38 37 36 35 35 33 25 19 20 20 19 18 17 17 16 15 13 12 12 11 12 14 15 13 11 11 9 8 10 14 14 14 15 17 15 13 14 14 12 14 15 13 13 14 14 13 13 13 13 14 18 21 21 20 18 18 18 18 17 16 16 15 20 24 16 16 20 18 22 23 23 24 25 27 29 32
34 36 37 38 39 41 40 39 39 38 38 38 38 38 37 35 34 32 23 17 18 18 19 19 18 18 17 16 14 13 13 11 14 18 18 16 12 10 9 9 9 12 14 14 16 16 14 13 14 14 13 13 14 14 14 14 14 13 12 12 13 14 19 21 21 20 19 18 18 18 18 17 17 14 16 20 17 19 21 18 21 22 23 24 24 25 28 32
34 37 38 39 39 39 38 38 38 38 38 39 39 38 37 36 32 29 23 18 17 17 19 19 19 19 18 17 15 15 14 12 12 14 16 16 13 9 8 8 9 11 14 13 14 15 15 13 13 14 13 12 13 15 14 14 13 13 13 12 13 16 19 20 20 20 19 18 18 17 17 17 16 14 14 15 18 22 22 20 21 22 24 25 24 26 32 36
36 38 39 38 38 38 37 37 38 38 39 40 40 39 38 37 32 26 21 19 18 17 18 19 20 20 19 18 17 17 15 12 12 11 11 14 14 11 7 8 10 11 14 15 14 15 15 13 12 12 12 12 13 14 14 14 14 13 13 13 14 17 18 19 19 19 18 18 17 17 17 17 16 15 13 14 21 27 24 23 23 24 25 23 25 31 36 37
38 38 38 38 38 38 36 37 37 38 40 40 41 41 40 38 30 23 21 19 19 19 18 19 19 20 21 20 20 19 14 13 14 12 11 13 14 12 9 8 10 11 13 16 16 15 14 12 12 12 13 13 14 14 14 14 13 12 13 13 15 18 19 18 19 19 18 18 17 17 16 17 16 14 13 18 28 30 26 25 25 26 25 25 31 35 37 36
40 39 39 38 37 37 36 36 37 38 40 41 42 42 41 39 29 22 21 21 20 20 19 19 19 20 22 24 24 18 14 14 14 14 13 14 14 13 11 10 10 10 13 17 17 14 13 12 12 13 14 14 14 14 14 14 13 13 14 13 14 18 19 18 19 19 18 18 17 17 16 16 15 13 13 22 32 32 28 28 26 25 25 30 35 35 36 36
41 40 40 38 36 36 36 36 36 37 40 42 44 43 42 39 30 23 23 23 22 21 21 20 20 20 23 29 27 17 14 16 16 16 16 15 15 13 13 13 10 9 12 16 16 15 14 13 12 13 14 15 14 14 14 14 13 12 13 13 13 15 17 18 18 19 18 17 17 16 15 14 13 11 12 22 31 31 30 31 28 25 27 34 34 35 38 36
41 40 40 37 35 35 36 36 36 37 41 42 44 45 43 39 31 26 25 25 23 23 21 21 21 21 27 31 25 17 16 16 15 17 17 16 16 15 16 16 11 9 13 15 15 16 16 13 12 13 15 16 15 14 15 13 12 12 13 14 14 16 18 18 18 18 17 17 17 16 15 13 13 12 11 21 32 31 31 32 31 30 31 34 34 38 41 38
41 40 39 38 36 37 37 36 36 38 41 42 43 44 40 35 31 27 27 26 25 24 22 22 21 25 34 29 18 19 17 14 13 14 16 16 15 16 18 18 14 12 15 18 18 18 16 14 14 15 16 17 17 16 15 14 13 13 13 14 16 18 19 18 18 18 17 16 16 15 14 13 12 13 12 20 32 31 30 32 32 34 33 33 36 39 41 41
40 40 40 39 38 39 40 39 40 41 42 43 44 40 34 31 29 28 28 26 25 25 22 24 24 29 38 26 15 20 19 15 13 12 14 15 13 16 20 20 17 15 17 21 22 20 17 15 16 17 17 18 19 19 17 16 15 15 16 17 18 19 19 18 19 18 16 16 16 14 14 13 12 15 16 21 31 32 31 32 32 34 34 34 36 37 41 44
41 42 41 41 41 42 44 42 43 44 44 43 39 33 30 30 29 28 27 25 24 24 23 26 29 32 34 23 16 19 18 16 13 11 13 12 13 19 23 22 20 18 19 21 21 19 18 18 18 18 17 18 20 20 19 18 18 17 17 18 18 19 18 18 18 18 17 15 15 14 14 14 13 17 21 25 31 32 31 33 34 35 35 36 36 36 41 45
42 43 44 46 46 46 47 45 45 48 46 41 34 29 29 28 26 26 25 24 23 24 27 31 34 34 28 18 17 19 17 16 15 13 13 11 14 20 25 25 23 21 21 20 20 19 18 18 18 18 17 18 20 21 22 21 19 18 18 18 18 18 19 18 18 17 17 15 14 14 14 17 19 21 24 27 31 31 30 33 35 36 36 37 36 37 42 45
42 44 47 50 51 51 51 49 48 48 45 40 32 27 28 28 27 26 23 23 26 30 33 36 36 30 22 16 17 18 17 18 18 15 13 13 15 20 24 26 25 23 21 21 20 20 19 19 18 19 18 19 21 23 24 23 20 18 18 17 18 18 18 18 18 17 16 15 14 14 16 21 25 25 26 27 29 29 29 32 36 37 37 38 37 38 44 47
41 45 48 52 54 53 51 49 46 43 41 37 31 31 34 34 32 28 24 25 29 31 31 33 30 21 18 19 18 17 17 18 19 17 15 14 16 20 25 26 26 24 22 21 20 20 20 20 21 23 23 21 21 22 22 21 19 18 17 16 16 17 17 18 17 17 17 15 15 17 20 26 29 28 28 30 30 29 30 32 37 37 37 38 37 39 44 47
41 46 51 55 55 53 51 48 44 42 43 38 32 35 37 38 40 38 35 32 27 23 21 25 24 17 17 22 21 19 18 18 18 19 17 16 17 22 26 27 26 24 21 21 20 20 20 22 24 24 22 19 19 21 21 20 19 18 17 15 16 17 17 17 16 17 17 17 19 22 26 30 32 30 29 31 32 32 31 33 37 38 38 37 37 39 42 45
44 49 52 55 55 54 52 49 46 44 44 41 33 32 33 37 41 41 41 37 28 23 21 20 21 19 17 20 23 21 20 19 19 20 19 19 21 26 27 26 25 23 21 22 22 21 20 24 24 21 20 19 21 23 22 21 19 18 16 16 17 17 17 16 17 17 16 18 23 25 28 31 32 31 31 32 33 34 35 36 37 37 38 37 37 39 40 43
48 53 54 55 57 56 54 50 46 44 42 42 35 32 38 41 41 40 41 40 34 29 27 23 22 22 18 18 23 22 22 22 21 21 21 23 26 29 28 26 24 23 23 24 24 23 24 26 24 22 23 24 25 25 22 21 21 18 16 16 17 18 17 17 19 18 16 19 24 26 29 32 31 31 32 34 35 36 36 38 39 38 36 37 38 38 38 41
50 55 57 57 57 56 56 50 42 44 47 46 41 37 44 50 47 47 46 45 41 33 29 28 26 27 25 21 21 22 24 25 22 21 21 25 30 31 30 27 26 26 25 24 23 25 27 27 25 25 26 27 27 27 25 23 22 19 17 16 18 18 17 18 20 20 19 20 25 27 29 30 30 31 32 34 35 35 35 37 39 39 38 38 39 39 39 40
54 56 59 61 61 60 62 54 44 48 52 53 52 48 52 56 55 56 54 50 47 39 33 31 28 29 28 24 22 23 25 25 23 22 21 25 32 34 32 29 27 26 26 25 23 24 24 24 26 27 26 26 26 27 26 24 21 21 20 17 17 17 17 18 21 21 22 24 25 25 28 30 31 32 34 34 34 34 33 34 36 38 39 40 40 40 41 42
65 66 66 66 68 66 63 57 52 53 54 57 62 61 59 59 58 61 62 56 51 44 38 35 32 30 28 26 24 23 26 27 23 22 22 25 31 34 33 30 28 26 26 26 25 25 24 23 25 26 26 25 25 26 26 23 21 21 21 17 16 17 17 20 22 22 25 29 26 21 27 37 36 34 35 35 34 34 33 33 34 36 38 40 42 42 43 44
75 77 77 76 76 70 61 58 57 55 59 65 67 65 61 57 58 63 65 61 53 44 39 37 34 32 29 26 25 25 28 28 24 23 23 27 31 32 31 29 28 27 26 27 27 29 29 26 25 24 24 24 25 26 25 24 21 20 20 18 18 19 20 22 23 21 24 28 26 21 28 41 42 37 36 36 35 35 33 33 33 34 37 39 40 41 42 44
76 79 83 83 82 76 64 59 54 53 64 70 66 67 63 55 60 67 64 60 53 43 39 38 35 33 30 26 26 26 27 28 26 25 24 27 30 29 30 29 27 27 28 29 32 34 31 27 26 24 23 24 25 25 25 23 21 19 20 20 20 20 22 26 25 24 25 24 25 24 28 40 47 41 37 37 38 37 34 34 35 35 37 38 39 40 41 42
75 79 82 81 81 78 69 57 48 52 66 69 66 68 62 58 65 71 64 57 54 47 40 37 37 37 32 27 26 25 27 29 27 26 25 27 31 30 31 30 27 28 28 30 34 35 32 27 24 24 25 26 25 23 23 21 19 19 20 23 23 22 26 29 28 28 29 25 25 29 29 38 49 46 40 40 41 41 39 37 38 38 38 39 40 40 41 42
77 81 79 76 75 74 68 54 44 50 61 66 69 68 63 65 68 68 65 62 61 51 40 37 37 37 34 29 28 27 31 34 28 26 27 29 32 32 32 30 28 29 30 29 31 32 30 25 22 23 24 26 23 21 21 20 19 20 22 25 25 24 27 30 30 29 30 28 27 32 33 36 47 50 48 48 47 46 45 41 41 42 41 42 42 41 41 41
80 83 78 76 73 69 63 51 43 47 54 61 70 69 69 72 69 66 64 64 68 56 41 40 38 37 36 31 31 31 35 38 31 29 30 31 33 33 33 32 30 32 32 30 30 29 28 25 24 24 24 24 22 21 21 20 21 22 22 24 24 26 27 30 33 30 29 29 29 35 37 36 43 51 53 55 53 50 48 45 43 43 43 44 43 41 41 41
85 83 77 73 69 65 61 51 44 46 52 60 69 72 75 74 70 70 64 60 68 61 45 42 39 38 37 32 32 35 39 41 35 32 33 34 35 35 35 36 35 37 36 32 31 30 28 27 25 24 25 24 21 21 21 20 21 22 21 22 24 27 29 30 32 31 29 30 33 37 37 35 44 52 53 55 56 52 49 47 45 45 45 46 44 44 43 42
86 80 74 72 69 67 63 54 49 49 56 67 74 76 77 76 73 69 61 62 73 67 53 47 42 40 40 33 33 38 41 42 38 33 34 35 36 36 36 36 37 41 40 35 33 32 30 29 26 25 26 24 21 21 21 20 21 21 21 22 25 28 32 32 31 31 30 32 36 38 37 44 55 56 53 55 59 57 52 49 48 48 48 47 47 46 45 44
85 78 73 70 67 65 61 57 56 57 62 72 79 77 74 78 76 63 55 66 78 74 63 55 46 44 44 38 38 44 44 41 39 35 33 34 36 36 36 36 35 37 37 35 34 34 34 33 29 26 26 25 22 21 20 20 20 20 21 22 24 28 32 33 32 31 30 33 40 41 42 57 67 62 56 58 61 59 54 51 51 50 49 48 47 46 45 45
84 75 67 63 59 58 59 59 62 61 64 73 78 74 72 75 72 64 61 67 76 79 70 61 52 48 48 44 45 50 48 44 42 38 35 36 37 37 36 38 37 36 33 33 34 33 34 35 31 27 27 25 23 21 18 18 18 19 20 20 22 25 28 30 28 28 31 35 40 41 44 58 67 65 63 64 62 58 54 52 51 50 49 48 47 46 44 45
80 68 61 57 53 53 56 61 65 63 65 73 74 72 74 73 68 69 74 75 80 84 73 62 56 50 50 49 49 51 51 49 48 44 40 36 36 36 36 37 39 38 33 32 33 30 30 32 29 26 26 23 23 22 19 19 19 20 19 20 22 23 26 30 30 31 35 38 44 50 56 62 65 65 66 67 64 56 54 53 50 49 50 49 48 47 44 45
75 64 58 54 53 54 54 58 64 64 65 70 72 74 74 69 67 71 77 78 84 87 75 62 56 50 49 50 48 49 52 52 51 49 47 40 35 35 34 35 36 35 33 32 33 30 29 30 29 27 27 24 23 22 20 20 21 21 20 21 23 24 28 32 35 39 39 41 52 64 69 69 67 67 68 68 63 56 54 54 51 51 52 51 50 48 47 48
73 68 60 57 60 57 53 56 61 65 67 65 67 74 70 65 68 72 77 80 83 85 78 68 58 49 48 47 44 45 49 53 53 51 50 44 38 35 34 35 35 33 33 33 33 30 28 30 31 29 28 26 27 26 23 21 21 21 21 21 23 27 29 31 36 42 41 48 63 68 68 70 67 65 68 69 65 59 56 55 53 54 53 52 52 49 50 52
75 71 64 65 65 57 55 60 61 63 65 61 64 70 68 67 67 67 76 81 81 83 82 75 62 50 48 47 44 43 44 50 53 53 53 48 41 36 35 35 35 33 33 33 33 30 30 33 33 31 30 28 28 30 28 25 23 21 20 20 23 28 29 28 34 37 40 54 69 69 67 66 63 61 64 68 65 58 58 57 55 55 54 55 55 54 54 54
73 70 68 69 65 60 61 61 56 56 58 59 65 70 69 70 67 66 76 80 80 84 82 74 64 54 51 50 47 44 43 48 53 55 54 50 44 38 36 36 35 34 34 34 33 32 33 37 36 33 33 31 29 30 29 26 25 24 23 22 24 28 28 28 31 31 38 56 67 69 67 60 56 55 56 64 65 57 59 61 58 57 58 57 57 56 55 54
71 69 72 70 64 66 66 58 53 55 56 57 65 69 68 68 67 71 79 80 79 83 78 70 64 59 56 51 47 46 47 51 54 55 53 51 48 41 38 38 36 34 35 35 35 35 36 40 38 34 34 32 30 30 29 25 24 24 26 26 26 29 28 30 32 32 39 52 60 65 64 55 52 52 53 63 65 57 59 63 61 61 60 58 57 56 56 55
70 71 74 70 66 67 64 59 58 59 60 59 62 65 65 65 68 73 78 78 77 78 74 66 61 60 58 52 47 47 52 56 57 57 56 52 48 43 40 42 41 35 35 36 36 37 38 40 40 38 36 34 34 35 32 28 25 24 24 25 26 28 28 27 31 34 37 43 49 53 52 49 52 55 57 63 61 56 60 64 63 62 60 58 58 57 58 58
71 77 80 73 68 64 60 59 60 60 61 60 59 60 61 64 69 72 73 76 78 77 72 64 58 59 60 54 48 51 57 61 58 57 55 51 51 48 43 46 45 37 35 36 35 39 42 41 43 43 39 38 39 38 37 36 32 30 29 29 27 26 26 25 27 33 36 39 43 42 40 46 54 55 57 61 60 60 63 63 62 61 59 59 59 60 62 61
76 85 86 76 68 62 59 58 58 61 62 59 59 59 58 60 67 72 74 76 77 75 72 67 62 61 60 55 52 54 59 61 58 56 55 53 52 51 47 48 46 38 35 37 36 40 44 43 47 49 44 42 41 39 40 41 38 37 38 41 38 32 30 29 28 32 37 41 42 36 36 48 56 54 56 61 63 64 63 62 62 61 59 61 62 65 66 65
83 90 86 75 68 64 61 57 57 61 60 58 60 60 57 60 66 71 73 75 75 73 72 71 65 62 61 57 54 54 58 60 59 56 56 54 51 50 50 49 44 38 38 38 36 38 39 41 48 52 48 48 50 46 43 42 42 44 46 46 45 39 35 35 35 35 39 45 42 32 36 52 57 54 56 61 64 66 63 62 63 61 61 64 67 68 68 67
89 92 85 76 72 68 63 60 59 62 61 60 63 62 62 67 70 70 71 73 72 70 73 73 65 61 61 59 57 56 57 59 58 56 54 53 51 51 52 49 46 47 47 42 37 39 45 48 49 50 48 47 49 49 46 45 46 49 50 48 47 44 39 37 36 34 37 45 42 33 39 54 57 55 57 60 64 66 65 64 65 64 65 67 68 67 67 66
90 91 86 78 74 69 66 64 63 64 63 63 64 64 68 75 75 71 71 72 69 68 73 74 66 60 59 59 59 58 56 57 57 56 56 55 54 52 51 49 50 52 49 43 40 44 52 57 55 55 54 48 46 51 53 53 53 53 54 54 53 52 48 40 35 33 36 43 45 40 44 54 58 57 59 61 64 68 67 67 69 68 68 70 70 68 67 67
92 91 86 78 73 70 68 63 62 65 62 60 64 68 75 80 77 72 71 69 67 68 71 72 66 59 57 58 59 59 57 58 58 58 59 59 58 54 49 46 47 48 46 44 45 46 52 58 59 61 66 62 58 59 57 56 60 60 59 58 56 55 51 43 39 39 38 39 43 47 49 53 58 61 61 64 69 71 70 70 71 71 70 73 75 70 67 67
96 94 88 78 73 71 67 61 60 63 61 62 71 77 80 81 76 73 71 66 65 66 69 71 67 60 58 60 61 61 60 62 63 63 61 60 60 57 50 47 48 47 45 45 47 47 51 58 60 62 68 69 66 64 61 60 62 63 61 60 57 55 54 50 48 49 44 38 41 50 53 55 59 62 63 67 71 72 74 74 74 73 72 74 74 69 66 66
98 96 90 81 77 72 67 62 61 63 63 68 79 82 80 79 75 72 70 66 65 65 66 70 68 62 63 63 62 63 63 63 63 64 65 62 62 62 58 54 52 47 45 47 49 47 51 59 62 62 67 71 69 67 66 65 65 64 63 61 58 57 56 53 53 52 49 46 46 51 55 57 59 61 64 70 73 75 76 75 74 73 73 73 73 70 68 65
96 99 94 85 80 75 70 67 65 66 69 76 84 82 78 77 74 71 68 65 65 63 62 66 65 62 64 64 63 64 63 63 60 61 65 65 62 62 59 56 55 50 47 50 49 46 49 58 64 63 66 72 73 70 68 66 66 67 67 64 61 60 58 57 56 55 55 55 54 53 56 59 59 61 67 73 76 77 77 76 74 73 74 74 73 70 69 65
95 100 96 85 79 75 73 71 69 71 75 79 84 81 75 74 73 71 67 61 62 62 61 64 65 65 67 68 67 65 64 65 63 62 66 66 62 61 60 58 57 54 52 53 52 47 46 55 62 60 65 76 75 71 73 71 67 67 69 69 66 64 64 62 61 61 61 62 62 59 59 60 60 62 68 74 77 78 78 77 75 74 75 76 75 73 72 69
96 99 93 83 77 73 73 76 75 74 75 79 83 79 73 72 73 73 69 61 59 61 60 61 63 65 70 71 70 69 69 70 70 68 68 68 66 65 65 63 61 58 57 57 56 53 47 51 56 53 63 79 76 71 76 73 65 65 69 70 68 66 66 64 62 63 63 63 64 63 63 64 62 63 69 75 78 80 79 78 76 75 77 78 78 77 75 74